Flag for Nicaragua Weather past 2 weeks in Masaya, Nicaragua

Now
82 °F

Scattered clouds.


Feels Like: 88 °F
Forecast: 73 / 88 °F
Wind: 12 mph from Southeast

Location: Managua A. C. Sandino

Current Time: Aug 20, 2014 at 10:40:57 AM

Latest Report: Aug 20, 2014 at 10:00 AM


Visibility: N/A

Pressure: 29.92 "Hg

Humidity: 74%

Dew point: 73 °F

Location of MasayaLocation

Historic Weather in Masaya — Graph

°F

Masaya temperature yesterday

Maximum temperature yesterday: 90 °F (at 11:00 AM)
Minimum temperature yesterday: 75 °F (at 1:00 AM)
Average temperature yesterday: 81 °F

Past Weeks' High & Low Weather Summary

 TemperatureHumidityPressure
High97 °F (Aug 5, 3:00 PM)100% (Aug 7, 11:00 PM)29.95 "Hg (Aug 7, 11:00 PM)
Low73 °F (Aug 8, 9:00 PM)41% (Aug 6, 1:00 PM)29.74 "Hg (Aug 11, 4:00 PM)
Average82 °F77%29.85 "Hg
* Reported Aug 5 9:00 AM — Aug 20 9:00 AM, Masaya, Weather by CustomWeather, © 2014

Note: Actual official high and low records may vary slightly from our data, if they occured in-between our weather recording intervals... More about our weather records

Advertising

Masaya weather history for previous 24 hours

 ConditionsComfort  
Time TempWeatherWind HumidityBarometerVisibility
9:00 AM
Aug 20
79 °FScattered clouds.9 mph84%29.92 "HgN/A
8:00 AM77 °FScattered clouds.12 mph83%29.89 "HgN/A
7:00 AM75 °FScattered clouds.5 mph89%29.89 "HgN/A
6:00 AM75 °FScattered clouds.7 mph89%29.86 "HgN/A
5:00 AM73 °FPassing clouds.5 mph94%29.83 "HgN/A
4:00 AM75 °FPassing clouds.No wind89%29.83 "HgN/A
3:00 AM75 °FPassing clouds.7 mph89%29.83 "HgN/A
2:00 AM75 °FPassing clouds.9 mph89%29.83 "Hg6 mi
1:00 AM77 °FPassing clouds.9 mph83%29.86 "HgN/A
12:00 AM79 °FPassing clouds.16 mph79%29.89 "HgN/A
11:00 PM
Aug 19
79 °FPassing clouds.9 mph79%29.86 "HgN/A
10:00 PM79 °FPassing clouds.12 mph79%29.86 "HgN/A
9:00 PM79 °FPassing clouds.5 mph84%29.86 "HgN/A
8:00 PM79 °FPassing clouds.5 mph79%29.83 "HgN/A
7:00 PM79 °FPassing clouds.12 mph79%29.83 "HgN/A
6:00 PM81 °FPartly sunny.14 mph89%29.80 "HgN/A
5:00 PM84 °FScattered clouds.12 mph66%29.77 "HgN/A
4:00 PM84 °FScattered clouds.9 mph70%29.77 "HgN/A
3:00 PM86 °FScattered clouds.9 mph70%29.77 "HgN/A
2:00 PM84 °FScattered clouds.12 mph79%29.80 "HgN/A
1:00 PM81 °FScattered clouds.12 mph89%29.83 "Hg6 mi
12:00 PM90 °FScattered clouds.7 mph59%29.83 "HgN/A
11:00 AM90 °FScattered clouds.7 mph55%29.83 "HgN/A
10:00 AM88 °FScattered clouds.16 mph55%29.83 "HgN/A
Weather by CustomWeather, © 2014

See weather overviewHow to use our weather pages